COSMOS 249 DEB, 18549

Orbit data source: Space-Track

COSMOS 249 DEB, 18549 is space debris in LEO originally from a launch on Sun, 20 Oct 1968 UTC launched from the Tyuratam Missile And Space Complex (TTMTR). Debris objects in space refer to the collection of defunct objects orbiting the Earth. Examples of debris include non-operational satellites, rocket bodies, and fragments generated from explosions, collisions, or faulty payload assembly.

Loading next visibility...
Identifier
18549, 1968-091DE
Orbit
LEO
Country
Flag of CISCIS
Related business
Manufacturer
Unknown
Mission
Spacecraft
Bus & Motor
Unknown
Mass
Unknown
Launch date (UTC)
1968-10-20 (58 years ago)
Launch vehicle
Unknown
Launch site
Tyuratam Missile And Space Complex (TTMTR)
Object type
Payload
Rocket body
Debris
Shape & HBR
Unknown shape, 0.1 m
Radar Cross Section
Small (<0.1 m²)

Expand to show TLE details & history
Last TLE update: 17 hours ago

TLE from 17 hours ago
0 COSMOS 249 DEB
1 18549U 68091DE  26133.26384350  .00001800  00000-0  22618-2 0  9997
2 18549  62.2218 226.4646 0640430 270.8543 112.1799 13.02602079624929
Epoch: 2026-05-13T06:19Z
TLE epoch observation values (Epoch: 2026-05-13T06:19:56.078Z)
Latitude
25.97671°
Longitude
-84.74822°
Altitude
1,464.126 km
Speed
7.034 km/s
True Right ascension
16h 05m 02s
True Declination
25° 51' 13"
Sunlit
Object was in full shadow at epoch
Visualization orbit readout
Latitude
Unknown
Longitude
Unknown
Altitude
Unknown
Speed
Unknown
Apparent Right ascension
Unknown
Apparent Declination
Unknown
Sunlit
N/A
Visualization observer readout
Local Sidereal Time
07:19:39
Azimuth
Unknown
Elevation
Unknown
Doppler factor
Unknown
Orbital elements
Apogee altitude
1,739.492 km
Perigee altitude
762.318 km
Semi-major axis
7,629.042 km
Eccentricity
0.06404
Inclination
62.2218°
RAAN
226.4646°
Arg. of periapsis
270.8543°
True anomaly
118.76162°
Mean anomaly
112.1799°
Eccentric anomaly
115.49206°
Mean motion
3.25715 °/min
Orbital period
110.53 mins
BSTAR
0.0022618
Loading maneuver chart data...
Computing Atmospheric mass density...

Documentation

Showing up to 5 results
|